| time (UTC) | temp F | wind direction | speed knots | gust knots | rain 1hr in | rain 24hr in | rain mn in | humidity % | barometer mb |
| 20260509021519 | 44 | 0.0 | 0.9 | 0.00 | 0.00 | 0.00 | 89 | 1018.1 | |
| 20260509020520 | 44 | 0.0 | 0.9 | 0.00 | 0.00 | 0.00 | 88 | 1017.6 | |
| 20260509015539 | 44 | 0.0 | 0.0 | 0.00 | 0.00 | 0.00 | 88 | 1017.7 | |
| 20260509014525 | 44 | 0.0 | 0.9 | 0.00 | 0.00 | 0.00 | 88 | 1017.8 | |
| 20260509013518 | 45 | 0.0 | 0.9 | 0.00 | 0.00 | 0.00 | 87 | 1018.0 | |
| 20260509012519 | 45 | 180 | 1.7 | 2.6 | 0.00 | 0.00 | 0.00 | 87 | 1018.0 |
| 20260509011540 | 45 | 0.0 | 0.0 | 0.00 | 0.00 | 0.00 | 88 | 1017.9 | |
| 20260509010519 | 45 | 0.0 | 0.0 | 0.00 | 0.00 | 0.00 | 88 | 1017.9 | |
| 20260509005519 | 45 | 0.0 | 0.0 | 0.00 | 0.00 | 0.00 | 87 | 1018.1 | |
| 20260509004544 | 45 | 0.0 | 0.0 | 0.00 | 0.00 | 0.00 | 87 | 1018.0 | |
| 20260509003525 | 46 | 0.0 | 0.9 | 0.00 | 0.00 | 0.00 | 87 | 1018.0 | |
| 20260509002519 | 46 | 0.0 | 1.7 | 0.00 | 0.00 | 0.00 | 86 | 1017.8 | |
| 20260509001519 | 46 | 180 | 0.9 | 1.7 | 0.00 | 0.00 | 0.00 | 85 | 1018.1 |
| 20260509000518 | 47 | 180 | 0.9 | 2.6 | 0.00 | 0.00 | 0.00 | 86 | 1018.1 |
| 20260508235539 | 47 | 0.0 | 0.9 | 0.00 | 0.00 | 0.00 | 86 | 1018.2 | |
| 20260508234519 | 47 | 0.0 | 0.0 | 0.00 | 0.00 | 0.00 | 85 | 1018.2 | |
| 20260508233519 | 47 | 0.0 | 0.0 | 0.00 | 0.00 | 0.00 | 85 | 1018.2 | |
| 20260508232519 | 48 | 0.0 | 1.7 | 0.00 | 0.00 | 0.00 | 85 | 1018.2 | |
| 20260508231519 | 48 | 0.0 | 0.0 | 0.00 | 0.00 | 0.00 | 85 | 1018.1 | |
| 20260508230520 | 48 | 0.0 | 0.0 | 0.00 | 0.00 | 0.00 | 85 | 1018.0 | |
| 20260508225519 | 48 | 180 | 0.9 | 1.7 | 0.00 | 0.00 | 0.00 | 84 | 1017.9 |
| 20260508224519 | 48 | 180 | 0.9 | 1.7 | 0.00 | 0.00 | 0.00 | 84 | 1018.1 |
| 20260508223519 | 49 | 180 | 0.9 | 1.7 | 0.00 | 0.00 | 0.00 | 83 | 1017.9 |
| 20260508222519 | 49 | 0.0 | 0.0 | 0.00 | 0.00 | 0.00 | 83 | 1018.0 | |
| 20260508221519 | 50 | 0.0 | 1.7 | 0.00 | 0.00 | 0.00 | 82 | 1018.1 | |
| 20260508220519 | 50 | 203 | 0.9 | 2.6 | 0.00 | 0.00 | 0.00 | 82 | 1018.2 |
| 20260508215539 | 51 | 0.0 | 0.9 | 0.00 | 0.00 | 0.00 | 81 | 1018.3 | |
| 20260508214519 | 51 | 0.0 | 0.0 | 0.00 | 0.00 | 0.00 | 81 | 1018.2 | |
| 20260508213530 | 51 | 0.0 | 0.0 | 0.00 | 0.00 | 0.00 | 80 | 1018.0 | |
| 20260508212518 | 52 | 203 | 0.9 | 2.6 | 0.00 | 0.00 | 0.00 | 79 | 1018.1 |
| 20260508211518 | 52 | 203 | 0.9 | 1.7 | 0.00 | 0.00 | 0.00 | 79 | 1018.2 |
| 20260508210646 | 52 | 0.0 | 0.9 | 0.00 | 0.00 | 0.00 | 77 | 1018.2 | |
| 20260508205519 | 53 | 0.0 | 0.9 | 0.00 | 0.00 | 0.00 | 76 | 1018.0 | |
| 20260508204524 | 53 | 203 | 0.9 | 1.7 | 0.00 | 0.00 | 0.00 | 76 | 1018.0 |
| 20260508203522 | 54 | 203 | 0.9 | 1.7 | 0.00 | 0.00 | 0.00 | 75 | 1017.9 |
| 20260508202543 | 55 | 203 | 0.9 | 0.9 | 0.00 | 0.00 | 0.00 | 74 | 1017.7 |
| 20260508201528 | 56 | 203 | 0.9 | 1.7 | 0.00 | 0.00 | 0.00 | 72 | 1017.7 |
| 20260508200518 | 56 | 0.0 | 0.9 | 0.00 | 0.00 | 0.00 | 71 | 1017.8 | |
| 20260508195519 | 57 | 180 | 0.9 | 2.6 | 0.00 | 0.00 | 0.00 | 69 | 1017.6 |
| 20260508194519 | 58 | 203 | 0.9 | 1.7 | 0.00 | 0.00 | 0.00 | 68 | 1017.5 |
| 20260508193530 | 59 | 0.0 | 1.7 | 0.00 | 0.00 | 0.00 | 67 | 1017.4 | |
| 20260508192518 | 59 | 203 | 0.9 | 1.7 | 0.00 | 0.00 | 0.00 | 66 | 1017.1 |
| 20260508191519 | 59 | 203 | 1.7 | 4.3 | 0.00 | 0.00 | 0.00 | 65 | 1016.9 |
| 20260508190519 | 60 | 180 | 2.6 | 4.3 | 0.00 | 0.00 | 0.00 | 65 | 1017.1 |
| 20260508185518 | 60 | 180 | 0.9 | 2.6 | 0.00 | 0.00 | 0.00 | 64 | 1016.8 |
| 20260508184527 | 61 | 180 | 2.6 | 5.2 | 0.00 | 0.00 | 0.00 | 64 | 1016.7 |
| 20260508183518 | 61 | 180 | 1.7 | 4.3 | 0.00 | 0.00 | 0.00 | 64 | 1016.8 |
| 20260508182519 | 62 | 180 | 3.5 | 7.0 | 0.00 | 0.00 | 0.00 | 63 | 1016.6 |
| 20260508181519 | 63 | 203 | 3.5 | 7.0 | 0.00 | 0.00 | 0.00 | 61 | 1016.8 |
| 20260508180518 | 63 | 203 | 3.5 | 6.1 | 0.00 | 0.00 | 0.00 | 62 | 1016.7 |
| 20260508175519 | 63 | 203 | 3.5 | 7.8 | 0.00 | 0.00 | 0.00 | 59 | 1016.5 |
| 20260508174518 | 64 | 180 | 2.6 | 4.3 | 0.00 | 0.00 | 0.00 | 57 | 1016.4 |
| 20260508173527 | 64 | 180 | 3.5 | 6.1 | 0.00 | 0.00 | 0.00 | 52 | 1016.3 |
| 20260508172518 | 65 | 203 | 3.5 | 8.7 | 0.00 | 0.00 | 0.00 | 54 | 1016.2 |
| 20260508171518 | 65 | 203 | 4.3 | 7.8 | 0.00 | 0.00 | 0.00 | 55 | 1016.2 |
| 20260508170518 | 65 | 180 | 5.2 | 9.6 | 0.00 | 0.00 | 0.00 | 55 | 1016.1 |
| 20260508165519 | 65 | 158 | 5.2 | 8.7 | 0.00 | 0.00 | 0.00 | 50 | 1016.0 |
| 20260508164518 | 66 | 135 | 4.3 | 8.7 | 0.00 | 0.00 | 0.00 | 49 | 1016.0 |
| 20260508163518 | 66 | 203 | 4.3 | 7.0 | 0.00 | 0.00 | 0.00 | 52 | 1015.7 |
| 20260508162518 | 66 | 180 | 3.5 | 7.0 | 0.00 | 0.00 | 0.00 | 51 | 1015.6 |
| 20260508161518 | 66 | 203 | 3.5 | 6.1 | 0.00 | 0.00 | 0.00 | 48 | 1015.7 |
| 20260508160519 | 67 | 180 | 4.3 | 7.8 | 0.00 | 0.00 | 0.00 | 46 | 1015.8 |
| 20260508155558 | 66 | 203 | 4.3 | 8.7 | 0.00 | 0.00 | 0.00 | 48 | 1015.9 |
| 20260508154517 | 67 | 203 | 5.2 | 9.6 | 0.00 | 0.00 | 0.00 | 50 | 1015.9 |
| 20260508153518 | 67 | 180 | 4.3 | 7.0 | 0.00 | 0.00 | 0.00 | 49 | 1016.1 |
| 20260508152518 | 67 | 135 | 5.2 | 10.4 | 0.00 | 0.00 | 0.00 | 48 | 1016.3 |
| 20260508151518 | 66 | 158 | 4.3 | 8.7 | 0.00 | 0.00 | 0.00 | 50 | 1016.2 |
| 20260508150528 | 66 | 180 | 5.2 | 10.4 | 0.00 | 0.00 | 0.00 | 50 | 1016.3 |
| 20260508145519 | 66 | 203 | 3.5 | 8.7 | 0.00 | 0.00 | 0.00 | 48 | 1016.2 |
| 20260508144518 | 67 | 135 | 4.3 | 8.7 | 0.00 | 0.00 | 0.00 | 49 | 1016.3 |
| 20260508143518 | 67 | 203 | 4.3 | 8.7 | 0.00 | 0.00 | 0.00 | 49 | 1016.1 |
| 20260508142518 | 68 | 203 | 5.2 | 10.4 | 0.00 | 0.00 | 0.00 | 51 | 1016.4 |
| 20260508141518 | 67 | 180 | 5.2 | 10.4 | 0.00 | 0.00 | 0.00 | 52 | 1016.3 |
| 20260508140518 | 68 | 203 | 6.1 | 10.4 | 0.00 | 0.00 | 0.00 | 49 | 1016.3 |
| 20260508135518 | 68 | 180 | 4.3 | 7.8 | 0.00 | 0.00 | 0.00 | 50 | 1016.3 |
| 20260508134518 | 68 | 203 | 5.2 | 8.7 | 0.00 | 0.00 | 0.00 | 48 | 1016.2 |
| 20260508133523 | 67 | 203 | 5.2 | 10.4 | 0.00 | 0.00 | 0.00 | 49 | 1016.3 |
| 20260508132520 | 67 | 180 | 5.2 | 8.7 | 0.00 | 0.00 | 0.00 | 49 | 1016.3 |
| 20260508131543 | 67 | 203 | 5.2 | 9.6 | 0.00 | 0.00 | 0.00 | 51 | 1016.3 |
| 20260508130520 | 67 | 180 | 3.5 | 9.6 | 0.00 | 0.00 | 0.00 | 50 | 1016.4 |
| 20260508125521 | 67 | 180 | 4.3 | 9.6 | 0.00 | 0.00 | 0.00 | 51 | 1016.3 |
| 20260508124543 | 68 | 203 | 4.3 | 9.6 | 0.00 | 0.00 | 0.00 | 50 | 1016.2 |
| 20260508123520 | 68 | 203 | 5.2 | 10.4 | 0.00 | 0.00 | 0.00 | 49 | 1016.4 |
| 20260508122600 | 66 | 203 | 5.2 | 9.6 | 0.00 | 0.00 | 0.00 | 53 | 1016.3 |
| 20260508121520 | 65 | 180 | 7.0 | 13.0 | 0.00 | 0.00 | 0.00 | 53 | 1016.4 |
| 20260508120521 | 65 | 203 | 6.1 | 10.4 | 0.00 | 0.00 | 0.00 | 53 | 1016.5 |
| 20260508115520 | 65 | 203 | 6.1 | 10.4 | 0.00 | 0.00 | 0.00 | 54 | 1016.4 |
| 20260508114520 | 65 | 203 | 5.2 | 9.6 | 0.00 | 0.00 | 0.00 | 53 | 1016.4 |
| 20260508113520 | 65 | 203 | 4.3 | 9.6 | 0.00 | 0.00 | 0.00 | 54 | 1016.3 |
| 20260508112545 | 66 | 180 | 3.5 | 9.6 | 0.00 | 0.00 | 0.00 | 50 | 1016.5 |
| 20260508111521 | 66 | 113 | 5.2 | 9.6 | 0.00 | 0.00 | 0.00 | 53 | 1016.3 |
| 20260508110525 | 66 | 135 | 5.2 | 11.3 | 0.00 | 0.00 | 0.00 | 56 | 1016.4 |
| 20260508105518 | 65 | 135 | 4.3 | 7.8 | 0.00 | 0.00 | 0.00 | 55 | 1016.4 |
| 20260508104640 | 64 | 135 | 6.1 | 12.2 | 0.00 | 0.00 | 0.00 | 58 | 1016.0 |
| 20260508103520 | 63 | 158 | 6.1 | 12.2 | 0.00 | 0.00 | 0.00 | 61 | 1016.1 |
| 20260508102520 | 62 | 68 | 1.7 | 4.3 | 0.00 | 0.00 | 0.00 | 69 | 1015.9 |
| 20260508101520 | 62 | 68 | 3.5 | 10.4 | 0.00 | 0.00 | 0.00 | 67 | 1016.4 |
| 20260508100519 | 63 | 135 | 2.6 | 7.0 | 0.00 | 0.00 | 0.00 | 68 | 1016.2 |
| 20260508095526 | 62 | 23 | 1.7 | 4.3 | 0.00 | 0.00 | 0.00 | 70 | 1016.3 |
| 20260508094520 | 62 | 68 | 2.6 | 6.1 | 0.00 | 0.00 | 0.00 | 71 | 1016.4 |
| 20260508093540 | 62 | 68 | 3.5 | 7.8 | 0.00 | 0.00 | 0.00 | 71 | 1016.2 |
| 20260508092525 | 62 | 90 | 4.3 | 7.8 | 0.00 | 0.00 | 0.00 | 72 | 1016.2 |
| 20260508091519 | 60 | 45 | 2.6 | 7.0 | 0.00 | 0.00 | 0.00 | 75 | 1016.1 |
| 20260508090519 | 59 | 113 | 2.6 | 7.0 | 0.00 | 0.00 | 0.00 | 75 | 1016.2 |
| 20260508085520 | 60 | 113 | 5.2 | 7.0 | 0.00 | 0.00 | 0.00 | 74 | 1016.1 |
| 20260508084519 | 59 | 113 | 2.6 | 5.2 | 0.00 | 0.00 | 0.00 | 77 | 1016.1 |
| 20260508083523 | 58 | 113 | 2.6 | 5.2 | 0.00 | 0.00 | 0.00 | 79 | 1015.9 |
| 20260508082520 | 57 | 90 | 2.6 | 7.0 | 0.00 | 0.00 | 0.00 | 78 | 1016.2 |
| 20260508081519 | 56 | 113 | 2.6 | 5.2 | 0.00 | 0.00 | 0.00 | 81 | 1016.1 |
| 20260508080539 | 55 | 113 | 2.6 | 6.1 | 0.00 | 0.00 | 0.00 | 82 | 1016.2 |
| 20260508075539 | 54 | 68 | 2.6 | 5.2 | 0.00 | 0.00 | 0.00 | 82 | 1016.1 |
| 20260508074519 | 54 | 68 | 2.6 | 5.2 | 0.00 | 0.00 | 0.00 | 83 | 1016.0 |
| 20260508073519 | 54 | 68 | 2.6 | 4.3 | 0.00 | 0.00 | 0.00 | 84 | 1015.8 |
| 20260508072559 | 53 | 68 | 2.6 | 4.3 | 0.00 | 0.00 | 0.00 | 84 | 1015.8 |
| 20260508071540 | 53 | 90 | 2.6 | 7.0 | 0.00 | 0.00 | 0.00 | 84 | 1015.7 |
| 20260508070539 | 52 | 68 | 1.7 | 3.5 | 0.00 | 0.00 | 0.00 | 84 | 1015.7 |
| 20260508065520 | 52 | 90 | 3.5 | 7.0 | 0.00 | 0.00 | 0.00 | 85 | 1015.5 |
| 20260508064519 | 52 | 68 | 3.5 | 6.1 | 0.00 | 0.00 | 0.00 | 85 | 1015.6 |
| 20260508063538 | 51 | 68 | 2.6 | 5.2 | 0.00 | 0.00 | 0.00 | 87 | 1015.5 |
| 20260508062519 | 50 | 68 | 2.6 | 5.2 | 0.00 | 0.00 | 0.00 | 88 | 1015.6 |
| 20260508061519 | 50 | 90 | 1.7 | 4.3 | 0.00 | 0.00 | 0.00 | 87 | 1015.4 |
| 20260508060525 | 50 | 68 | 2.6 | 3.5 | 0.00 | 0.00 | 0.00 | 87 | 1015.4 |
| 20260508055519 | 50 | 90 | 0.9 | 1.7 | 0.00 | 0.00 | 0.00 | 87 | 1015.4 |
| 20260508054518 | 49 | 90 | 0.9 | 1.7 | 0.00 | 0.00 | 0.00 | 87 | 1015.3 |
| 20260508053519 | 49 | 90 | 1.7 | 3.5 | 0.00 | 0.00 | 0.00 | 87 | 1015.1 |
| 20260508052519 | 50 | 90 | 2.6 | 6.1 | 0.00 | 0.00 | 0.00 | 86 | 1015.3 |
| 20260508051519 | 50 | 90 | 2.6 | 6.1 | 0.00 | 0.00 | 0.00 | 86 | 1015.3 |
| 20260508050518 | 50 | 68 | 2.6 | 6.1 | 0.00 | 0.00 | 0.00 | 86 | 1015.3 |
| 20260508045519 | 50 | 90 | 1.7 | 5.2 | 0.00 | 0.00 | 0.00 | 86 | 1015.4 |
| 20260508044524 | 50 | 90 | 3.5 | 6.1 | 0.00 | 0.00 | 0.00 | 85 | 1014.9 |
| 20260508043524 | 51 | 90 | 2.6 | 4.3 | 0.00 | 0.00 | 0.00 | 85 | 1014.9 |
| 20260508042524 | 51 | 90 | 1.7 | 3.5 | 0.00 | 0.00 | 0.00 | 85 | 1015.0 |
| 20260508041546 | 51 | 68 | 2.6 | 6.1 | 0.00 | 0.00 | 0.00 | 84 | 1014.9 |
| 20260508040519 | 51 | 68 | 1.7 | 3.5 | 0.00 | 0.00 | 0.00 | 84 | 1015.0 |
| 20260508035523 | 51 | 68 | 2.6 | 6.1 | 0.00 | 0.00 | 0.00 | 84 | 1014.9 |
| 20260508034519 | 51 | 68 | 1.7 | 3.5 | 0.00 | 0.00 | 0.00 | 83 | 1015.1 |
| 20260508033517 | 51 | 90 | 1.7 | 4.3 | 0.00 | 0.00 | 0.00 | 83 | 1015.1 |
| 20260508032518 | 51 | 90 | 2.6 | 5.2 | 0.00 | 0.00 | 0.00 | 83 | 1015.2 |
| 20260508031538 | 51 | 90 | 1.7 | 3.5 | 0.00 | 0.00 | 0.00 | 82 | 1015.3 |
| 20260508030518 | 51 | 90 | 1.7 | 3.5 | 0.00 | 0.00 | 0.00 | 82 | 1015.4 |
| 20260508025518 | 51 | 68 | 1.7 | 2.6 | 0.00 | 0.00 | 0.00 | 82 | 1015.3 |
| 20260508024519 | 51 | 90 | 0.9 | 3.5 | 0.00 | 0.00 | 0.00 | 82 | 1015.2 |
| 20260508023519 | 51 | 90 | 0.9 | 2.6 | 0.00 | 0.00 | 0.00 | 81 | 1015.3 |
| 20260508022519 | 51 | 90 | 0.9 | 2.6 | 0.00 | 0.00 | 0.00 | 80 | 1015.4 |